Location: Pedro
(43.9050°N, 104.3408°W)
Time: 08:44:13
(UTC+00:00)

Tiangong - Visible Passes

Search period start: 23 September 2023 00:00
Search period end: 03 October 2023 00:00
Orbit: 374 x 385 km, 41.5° (Epoch: 22 September)

Date Brightness Start Highest point End Pass type
(mag) Time Alt. Az. Time Alt. Az. Time Alt. Az.
29 Sep -0.2 02:08:20 10° SSW 02:09:55 17° S 02:09:55 17° S visible
30 Sep 0.1 02:42:30 10° SW 02:43:37 19° SW 02:43:37 19° SW visible
01 Oct -0.8 01:41:15 10° SW 01:43:55 26° SSE 01:45:03 21° SE visible
02 Oct -1.5 02:15:43 10° WSW 02:18:27 44° S 02:18:27 44° S visible
